• In Netherlands
  • List of Countries
  • For 7 days
  • Water Temperature
  • Satellite Maps
  • Weather Map
  • Weather Widgets
  • user-avatar
    Login

    Hourly Weather Baraki Barak

    Today, 29 March, Wednesday

    Time Temperature Precipitation Wind Pressure Humidity
    00:00 +12°C° 0 mm 1 mps 599 mmHg 65%
    01:00 +12°C° 0 mm 1 mps 599 mmHg 66%
    02:00 +11°C° 0 mm 1 mps 598 mmHg 67%
    03:00 +11°C° 0 mm 1 mps 598 mmHg 68%
    04:00 +10°C° 0 mm 1 mps 598 mmHg 69%
    05:00 +10°C° 0 mm 1 mps 598 mmHg 69%
    06:00 +10°C° 0 mm 1 mps 598 mmHg 65%
    07:00 +11°C° 0 mm 1 mps 599 mmHg 61%
    08:00 +12°C° 0 mm 1 mps 599 mmHg 57%
    09:00 +13°C° 0 mm 1 mps 599 mmHg 50%
    10:00 +14°C° 0 mm 1 mps 600 mmHg 43%
    11:00 +16°C° 0 mm 1 mps 600 mmHg 36%
    12:00 +17°C° 0 mm 2 mps 600 mmHg 33%
    13:00 +18°C° 0 mm 2 mps 600 mmHg 30%
    14:00 +19°C° 0 mm 3 mps 600 mmHg 27%
    15:00 +19°C° 0 mm 3 mps 600 mmHg 28%
    16:00 +19°C° 0 mm 3 mps 600 mmHg 28%
    17:00 +19°C° 0 mm 3 mps 600 mmHg 29%
    18:00 +18°C° 0 mm 2 mps 600 mmHg 34%
    19:00 +17°C° 0 mm 2 mps 599 mmHg 38%
    20:00 +16°C° 0 mm 1 mps 599 mmHg 43%
    21:00 +15°C° 0 mm 1 mps 599 mmHg 45%
    22:00 +14°C° 0 mm 1 mps 599 mmHg 46%
    23:00 +14°C° 0 mm 1 mps 599 mmHg 48%

    Tomorrow, 30 March, Thursday

    Time Temperature Precipitation Wind Pressure Humidity
    00:00 +13°C° 0 mm 1 mps 598 mmHg 50%
    01:00 +13°C° 0 mm 1 mps 598 mmHg 53%
    02:00 +12°C° 0 mm 1 mps 598 mmHg 55%
    03:00 +12°C° 0.1 mm 1 mps 597 mmHg 57%
    04:00 +12°C° 0.1 mm 1 mps 597 mmHg 58%
    05:00 +11°C° 0.1 mm 1 mps 597 mmHg 59%
    06:00 +12°C° 0.2 mm 1 mps 598 mmHg 57%
    07:00 +13°C° 0.2 mm 1 mps 598 mmHg 55%
    08:00 +13°C° 0.2 mm 1 mps 599 mmHg 53%
    09:00 +14°C° 0.2 mm 2 mps 599 mmHg 50%
    10:00 +15°C° 0.2 mm 2 mps 600 mmHg 47%
    11:00 +17°C° 0.2 mm 2 mps 600 mmHg 44%
    12:00 +17°C° 0.4 mm 3 mps 600 mmHg 41%
    13:00 +18°C° 0.4 mm 3 mps 600 mmHg 39%
    14:00 +19°C° 0.4 mm 4 mps 600 mmHg 36%
    15:00 +19°C° 0.6 mm 4 mps 600 mmHg 35%
    16:00 +19°C° 0.6 mm 4 mps 600 mmHg 33%
    17:00 +19°C° 0.6 mm 4 mps 599 mmHg 32%
    18:00 +18°C° 0.5 mm 3 mps 599 mmHg 37%
    19:00 +17°C° 0.5 mm 3 mps 599 mmHg 42%
    20:00 +14°C° 0.5 mm 3 mps 599 mmHg 47%
    21:00 +15°C° 0.2 mm 2 mps 599 mmHg 49%
    22:00 +14°C° 0.2 mm 2 mps 599 mmHg 51%
    23:00 +13°C° 0.2 mm 2 mps 599 mmHg 53%

    Day after tomorrow, 31 March, Friday

    Time Temperature Precipitation Wind Pressure Humidity
    00:00 +13°C° 0.1 mm 2 mps 598 mmHg 55%
    01:00 +12°C° 0.1 mm 1 mps 598 mmHg 56%
    02:00 +12°C° 0.1 mm 1 mps 598 mmHg 58%
    03:00 +11°C° 0 mm 1 mps 598 mmHg 58%
    04:00 +11°C° 0 mm 1 mps 597 mmHg 59%
    05:00 +10°C° 0 mm 1 mps 597 mmHg 60%
    06:00 +11°C° 0 mm 1 mps 598 mmHg 57%
    07:00 +12°C° 0 mm 1 mps 598 mmHg 53%
    08:00 +13°C° 0 mm 1 mps 599 mmHg 50%
    09:00 +14°C° 0 mm 1 mps 600 mmHg 46%
    10:00 +15°C° 0 mm 2 mps 600 mmHg 43%
    11:00 +16°C° 0 mm 2 mps 601 mmHg 39%
    12:00 +17°C° 0 mm 3 mps 601 mmHg 35%
    13:00 +18°C° 0 mm 3 mps 601 mmHg 32%
    14:00 +19°C° 0 mm 4 mps 601 mmHg 28%
    15:00 +19°C° 0 mm 4 mps 600 mmHg 27%
    16:00 +19°C° 0 mm 4 mps 600 mmHg 26%
    17:00 +19°C° 0 mm 4 mps 600 mmHg 24%
    18:00 +18°C° 0 mm 3 mps 600 mmHg 28%
    19:00 +17°C° 0 mm 3 mps 600 mmHg 32%
    20:00 +16°C° 0 mm 2 mps 599 mmHg 36%
    21:00 +15°C° 0 mm 2 mps 599 mmHg 37%
    22:00 +14°C° 0 mm 2 mps 599 mmHg 39%
    23:00 +14°C° 0 mm 2 mps 599 mmHg 40%

    1 April, Saturday

    Time Temperature Precipitation Wind Pressure Humidity
    00:00 +13°C° 0 mm 2 mps 599 mmHg 42%
    01:00 +12°C° 0 mm 1 mps 599 mmHg 43%
    02:00 +12°C° 0 mm 1 mps 598 mmHg 44%
    03:00 +11°C° 0 mm 1 mps 598 mmHg 44%
    04:00 +11°C° 0 mm 1 mps 598 mmHg 44%
    05:00 +11°C° 0 mm 1 mps 598 mmHg 44%
    06:00 +11°C° 0 mm 1 mps 598 mmHg 42%
    07:00 +12°C° 0 mm 1 mps 599 mmHg 39%
    08:00 +13°C° 0 mm 2 mps 600 mmHg 36%
    09:00 +14°C° 0 mm 2 mps 600 mmHg 33%
    10:00 +15°C° 0 mm 2 mps 601 mmHg 30%
    11:00 +16°C° 0 mm 2 mps 601 mmHg 28%
    12:00 +17°C° 0 mm 2 mps 601 mmHg 26%
    13:00 +17°C° 0 mm 2 mps 600 mmHg 24%
    14:00 +18°C° 0 mm 2 mps 600 mmHg 22%
    15:00 +18°C° 0 mm 2 mps 600 mmHg 21%
    16:00 +18°C° 0 mm 3 mps 599 mmHg 20%
    17:00 +18°C° 0 mm 3 mps 599 mmHg 20%
    18:00 +17°C° 0 mm 2 mps 599 mmHg 23%
    19:00 +16°C° 0 mm 2 mps 599 mmHg 27%
    20:00 +15°C° 0 mm 2 mps 599 mmHg 31%
    21:00 +14°C° 0 mm 2 mps 598 mmHg 32%
    22:00 +13°C° 0 mm 2 mps 598 mmHg 32%
    23:00 +13°C° 0 mm 1 mps 598 mmHg 33%

    2 April, Sunday

    Time Temperature Precipitation Wind Pressure Humidity
    00:00 +12°C° 0 mm 2 mps 597 mmHg 33%
    01:00 +12°C° 0 mm 2 mps 597 mmHg 33%
    02:00 +10°C° 0 mm 2 mps 596 mmHg 34%
    03:00 +10°C° 0 mm 2 mps 596 mmHg 34%
    04:00 +9°C° 0 mm 2 mps 596 mmHg 34%
    05:00 +9°C° 0 mm 2 mps 596 mmHg 35%
    06:00 +10°C° 0 mm 2 mps 596 mmHg 33%
    07:00 +12°C° 0 mm 2 mps 597 mmHg 32%
    08:00 +13°C° 0 mm 2 mps 597 mmHg 30%
    09:00 +14°C° 0 mm 1 mps 598 mmHg 27%
    10:00 +15°C° 0 mm 1 mps 598 mmHg 25%
    11:00 +18°C° 0 mm 1 mps 599 mmHg 22%
    12:00 +18°C° 0 mm 2 mps 598 mmHg 21%
    13:00 +19°C° 0 mm 2 mps 598 mmHg 20%
    14:00 +19°C° 0 mm 3 mps 598 mmHg 20%
    15:00 +20°C° 0 mm 4 mps 597 mmHg 20%
    16:00 +20°C° 0 mm 4 mps 597 mmHg 20%
    17:00 +20°C° 0 mm 5 mps 597 mmHg 20%
    18:00 +19°C° 0 mm 4 mps 597 mmHg 25%
    19:00 +18°C° 0 mm 4 mps 597 mmHg 29%
    20:00 +17°C° 0 mm 3 mps 596 mmHg 33%
    21:00 +16°C° 0 mm 3 mps 596 mmHg 36%
    22:00 +14°C° 0 mm 3 mps 596 mmHg 39%
    23:00 +14°C° 0 mm 2 mps 596 mmHg 43%

    3 April, Monday

    Time Temperature Precipitation Wind Pressure Humidity
    00:00 +13°C° 0 mm 2 mps 595 mmHg 45%
    01:00 +13°C° 0 mm 2 mps 595 mmHg 47%
    02:00 +12°C° 0 mm 2 mps 595 mmHg 48%
    03:00 +11°C° 0 mm 1 mps 594 mmHg 50%
    04:00 +11°C° 0 mm 1 mps 594 mmHg 51%
    05:00 +10°C° 0 mm 1 mps 594 mmHg 52%
    06:00 +11°C° 0 mm 1 mps 594 mmHg 49%
    07:00 +12°C° 0 mm 1 mps 595 mmHg 46%
    08:00 +13°C° 0 mm 1 mps 595 mmHg 43%
    09:00 +14°C° 0 mm 1 mps 596 mmHg 40%
    10:00 +15°C° 0 mm 2 mps 596 mmHg 36%
    11:00 +16°C° 0 mm 2 mps 596 mmHg 32%
    12:00 +17°C° 0.2 mm 3 mps 596 mmHg 31%
    13:00 +18°C° 0.2 mm 4 mps 596 mmHg 30%
    14:00 +19°C° 0.2 mm 5 mps 596 mmHg 29%
    15:00 +17°C° 0.3 mm 5 mps 595 mmHg 30%
    16:00 +17°C° 0.3 mm 5 mps 595 mmHg 32%
    17:00 +17°C° 0.3 mm 5 mps 595 mmHg 33%
    18:00 +16°C° 0.5 mm 5 mps 594 mmHg 38%
    19:00 +15°C° 0.5 mm 4 mps 594 mmHg 42%
    20:00 +14°C° 0.5 mm 4 mps 594 mmHg 46%
    21:00 +14°C° 0.5 mm 3 mps 594 mmHg 50%
    22:00 +13°C° 0.5 mm 3 mps 594 mmHg 53%
    23:00 +12°C° 0.5 mm 3 mps 593 mmHg 57%
    Show more